Lake Perris Weather Center

Moon Phase Calendar



Lake Perris Water Level
Online Cameras

 


      

Current Conditions in Lakeview
6/25/2024 12:53:33 AM

73°F
Feels Like 72
Clear
Humidity
44%
Pressure
29.91"
Wind
2 mph (SE)
Dew Point
50°F
UV Index
0/10 (Low)
Visibility
6 mi

Hourly Forecast

Date & Time Tue, Jun 25
12:00 AM
Tue, Jun 25
1:00 AM
Tue, Jun 25
2:00 AM
Tue, Jun 25
3:00 AM
Tue, Jun 25
4:00 AM
Tue, Jun 25
5:00 AM
Tue, Jun 25
6:00 AM
Tue, Jun 25
7:00 AM
Tue, Jun 25
8:00 AM
Tue, Jun 25
9:00 AM
Tue, Jun 25
10:00 AM
Tue, Jun 25
11:00 AM
Tue, Jun 25
12:00 PM
Tue, Jun 25
1:00 PM
Tue, Jun 25
2:00 PM
Tue, Jun 25
3:00 PM
Tue, Jun 25
4:00 PM
Tue, Jun 25
5:00 PM
Tue, Jun 25
6:00 PM
Tue, Jun 25
7:00 PM
Tue, Jun 25
8:00 PM
Tue, Jun 25
9:00 PM
Tue, Jun 25
10:00 PM
Tue, Jun 25
11:00 PM
Wed, Jun 26
12:00 AM
Wed, Jun 26
1:00 AM
Wed, Jun 26
2:00 AM
Wed, Jun 26
3:00 AM
Wed, Jun 26
4:00 AM
Wed, Jun 26
5:00 AM
Wed, Jun 26
6:00 AM
Wed, Jun 26
7:00 AM
Wed, Jun 26
8:00 AM
Wed, Jun 26
9:00 AM
Wed, Jun 26
10:00 AM
Wed, Jun 26
11:00 AM
Wed, Jun 26
12:00 PM
Wed, Jun 26
1:00 PM
Wed, Jun 26
2:00 PM
Wed, Jun 26
3:00 PM
Wed, Jun 26
4:00 PM
Wed, Jun 26
5:00 PM
Wed, Jun 26
6:00 PM
Wed, Jun 26
7:00 PM
Wed, Jun 26
8:00 PM
Wed, Jun 26
9:00 PM
Wed, Jun 26
10:00 PM
Wed, Jun 26
11:00 PM
Condition
Clear

Clear

Clear

Clear

Clouds

Clouds

Clear

Clear

Clear

Clear

Clear

Clear

Clear

Clear

Clear

Clear

Clear

Clear

Clear

Clear

Clear

Clear

Clear

Clear

Clear

Clear

Clear

Clear

Clear

Clear

Clear

Clear

Clear

Clear

Clear

Clear

Clear

Clear

Clear

Clear

Clear

Clear

Clear

Clear

Clear

Clear

Clear

Clear
Temperature 73°F73°F72°F71°F70°F69°F68°F71°F74°F78°F82°F85°F89°F92°F93°F93°F92°F90°F88°F84°F78°F74°F72°F70°F69°F68°F67°F67°F66°F65°F66°F69°F72°F75°F79°F84°F88°F91°F94°F95°F94°F92°F88°F85°F78°F74°F72°F70°F
Feels Like 72°F72°F71°F70°F69°F68°F68°F71°F74°F77°F81°F83°F86°F89°F90°F90°F89°F87°F85°F82°F77°F73°F71°F69°F68°F67°F66°F66°F65°F64°F65°F68°F71°F75°F79°F82°F85°F88°F91°F92°F91°F89°F85°F83°F77°F73°F71°F69°F
Cloudiness 8%8%8%8%12%14%7%7%6%6%6%6%7%6%6%6%5%4%0%0%0%0%0%0%0%0%0%0%0%0%0%0%0%0%0%0%0%0%0%0%0%0%0%0%0%0%0%0%
Visibility 6 mi6 mi6 mi6 mi6 mi6 mi6 mi6 mi6 mi6 mi6 mi6 mi6 mi6 mi6 mi6 mi6 mi6 mi6 mi6 mi6 mi6 mi6 mi6 mi6 mi6 mi6 mi6 mi6 mi6 mi6 mi6 mi6 mi6 mi6 mi6 mi6 mi6 mi6 mi6 mi6 mi6 mi6 mi6 mi6 mi6 mi6 mi6 mi
Precipitation 0%0%0%0%0%0%0%0%0%0%0%0%0%0%0%0%0%0%0%0%0%0%0%0%0%0%0%0%0%0%0%0%0%0%0%0%0%0%0%0%0%0%0%0%0%0%0%0%
Humidity 47%44%47%50%53%58%60%52%47%41%35%30%27%26%25%25%26%26%28%31%38%43%47%50%53%54%56%57%57%58%58%50%46%41%35%30%27%24%22%22%23%24%26%27%34%38%41%44%
Dew Point 51°F50°F51°F52°F52°F53°F55°F54°F54°F53°F52°F52°F52°F53°F53°F53°F53°F52°F52°F51°F51°F51°F51°F51°F52°F52°F52°F52°F51°F51°F52°F51°F51°F51°F51°F50°F50°F51°F51°F51°F51°F51°F50°F49°F48°F48°F48°F48°F
Pressure 29.91"29.91"29.91"29.91"29.88"29.88"29.88"29.91"29.91"29.91"29.88"29.88"29.88"29.88"29.85"29.85"29.83"29.85"29.85"29.85"29.88"29.91"29.94"29.94"29.94"29.94"29.91"29.91"29.91"29.94"29.94"29.94"29.94"29.94"29.91"29.91"29.88"29.85"29.83"29.83"29.83"29.8"29.83"29.83"29.85"29.85"29.88"29.88"
Wind Speed 2.4 mph2 mph1.6 mph2.5 mph1.4 mph0.8 mph1.2 mph1 mph1.5 mph1.6 mph3.3 mph3.8 mph5.1 mph6.6 mph8 mph8.6 mph9.2 mph8.4 mph5.8 mph5.1 mph3.6 mph1.2 mph0.6 mph0.7 mph0.9 mph1.4 mph0.4 mph0.2 mph1.4 mph1 mph0.9 mph0.9 mph0.6 mph1 mph2.2 mph3 mph3.3 mph4.5 mph6.3 mph7.2 mph7.3 mph6.2 mph4.7 mph3.6 mph1.7 mph1 mph1.2 mph2 mph
Wind
Direction
154°
SSE
144°
SE
146°
SE
152°
SSE
94°
E
106°
ESE
74°
ENE
195°
SSW
229°
SW
310°
NW
278°
W
273°
W
274°
W
291°
WNW
292°
WNW
288°
WNW
286°
WNW
273°
W
254°
WSW
274°
W
270°
W
266°
W
229°
SW
143°
SE
114°
ESE
129°
SE
142°
SE
122°
ESE
123°
ESE
139°
SE
123°
ESE
100°
E
164°
SSE
243°
WSW
275°
W
280°
W
277°
W
282°
WNW
289°
WNW
283°
WNW
279°
W
276°
W
254°
WSW
279°
W
265°
W
234°
SW
170°
S
146°
SE

Daily Forecast

Date High Low Precip. Humidity
Today
Jun 25

Clear
93 °F
68 °F
0%
27%
Wednesday
Jun 26

Clear
95 °F
65 °F
0%
27%
Thursday
Jun 27

Clear
95 °F
64 °F
0%
23%
Friday
Jun 28

Clear
93 °F
60 °F
0%
19%
Saturday
Jun 29

Clear
94 °F
58 °F
0%
18%
Sunday
Jun 30

Clear
96 °F
60 °F
0%
17%
Monday
Jul 1

Clear
94 °F
60 °F
0%
18%
Tuesday
Jul 2

Clear
93 °F
61 °F
0%
28%
Wednesday
Jul 3

Clear
92 °F
60 °F
0%
32%
Thursday
Jul 4

Clear
95 °F
61 °F
0%
23%
Friday
Jul 5

Clear
98 °F
63 °F
0%
18%
Saturday
Jul 6

Clear
99 °F
66 °F
0%
17%
Sunday
Jul 7

Clouds
104 °F
69 °F
0%
19%
Monday
Jul 8

Clear
100 °F
73 °F
13%
27%
Tuesday
Jul 9

Rain
98 °F
71 °F
41%
30%
Wednesday
Jul 10

Rain
100 °F
72 °F
31%
31%

Temperature 8-14 Day Outlook



Precipitation 8-14 Day Outlook






About Us
Contact Us
Site Map
Search Site
Advertise With Us
   
LakePerris.LakesOnline.com
THE LAKE PERRIS WEBSITE

Copyright 2024, Lakes Online
Privacy    |    Legal